[[{"header":{"parameterUnit":"m.s-1","parameterCategory":1,"la1":30.2991,"la2":30.254,"lo1":-89.0895,"lo2":-89.0444,"dy":0.0017,"dx":0.0017,"nx":28,"ny":28,"refTime":"2023-07-20T21:00:00:Z","depth":0,"parameterNumber":2,"parameterNumberName":"U-component_of_WINDS"},"data":[0,0,0,0,0,0,0,0,0,0,0,0,0,0,0,0,0,0,0,0,0,0,0,0,0,0,0,0,0,0,0,0,0,0,0,0,0,0,0,0,0,0,0,0,0,0,0,0,0,0,0,0,0,0,0,0,0,0,0.5112,0.5113,0,0.5228,0.5229,0.5231,0.5271,0.527,0.527,0.5269,0.5393,0.5397,0.54,0,0,0,0,0,0,0,0,0,0,0,0,0,0.4927,0.493,0.5112,0.5113,0.5114,0.5228,0.5229,0.5231,0.5271,0.527,0.527,0.5269,0.5392,0.5396,0.5401,0,0,0,0,0,0,0,0,0,0,0,0,0,0.5022,0.4931,0.5111,0.5148,0.5152,0.5227,0.5229,0.5231,0.5271,0.527,0.5269,0.5269,0.539,0.5396,0.5401,0.545,0,0,0.5418,0.5421,0,0,0,0,0,0,0,0,0.5016,0.5029,0.5141,0.5145,0.5151,0.5234,0.521,0.5305,0.5271,0.5226,0.5269,0.5268,0.5341,0.5351,0.5374,0.5456,0.5461,0.5419,0.5422,0.5425,0.5426,0,0,0,0,0,0,0,0.501,0.5024,0.5158,0.5143,0.5148,0.516,0.5172,0.5228,0.5286,0.523,0.5233,0.5246,0.5344,0.5369,0.5377,0.5463,0.5419,0.5424,0.5427,0.5429,0.559,0.559,0,0,0,0,0,0,0.4997,0.5018,0.5154,0.5161,0.508,0.5163,0.5178,0.5208,0.5286,0.5297,0.5246,0.5247,0.5359,0.5371,0.5382,0.5443,0.5425,0.543,0.5433,0.5589,0.559,0.5591,0,0,0,0,0,0,0.4992,0.5008,0.5149,0.5091,0.5109,0.5167,0.5201,0.5211,0.5236,0.5298,0.5309,0.5261,0.5359,0.5374,0.5432,0.5448,0.5432,0.5438,0.5588,0.5589,0.559,0.5567,0,0,0,0,0,0,0.4987,0.5007,0.5025,0.5091,0.5112,0.5197,0.5202,0.5213,0.5245,0.5247,0.5315,0.5326,0.536,0.5424,0.5438,0.5456,0.5442,0.5587,0.5588,0.559,0.5567,0.5567,0.5568,0,0,0,0,0,0.498,0.5015,0.5026,0.5042,0.5136,0.5198,0.521,0.5248,0.5246,0.5265,0.5305,0.5323,0.5444,0.5429,0.5446,0.5465,0.5586,0.5588,0.559,0.5566,0.5567,0.5568,0,0,0,0,0,0,0.4952,0.5024,0.5037,0.5094,0.5139,0.5204,0.523,0.5248,0.5295,0.5296,0.5342,0.5357,0.5411,0.5444,0.5427,0.5516,0.5516,0.5521,0.5493,0.5494,0.5495,0.5486,0.5447,0,0,0,0,0,0.4951,0.4994,0.5056,0.51,0.5122,0.5171,0.52,0.5224,0.5274,0.5294,0.5338,0.5386,0.5435,0.5466,0.5515,0.5571,0.5587,0.5593,0.5594,0.5594,0.5598,0.563,0.5634,0.5597,0.5597,0.5597,0,0,0.4953,0.4997,0.5022,0.5095,0.5133,0.5177,0.5188,0.5234,0.5267,0.5301,0.5358,0.5392,0.5449,0.5507,0.5534,0.5536,0.5611,0.5597,0.5596,0.5601,0.5633,0.5636,0.5639,0.5599,0.5599,0.5598,0,0,0.4977,0.5015,0.5055,0.5093,0.5149,0.5182,0.5191,0.5254,0.5277,0.5335,0.5361,0.5402,0.5485,0.5524,0.5555,0.5592,0.561,0.5607,0.5611,0.5641,0.5644,0.5647,0.566,0.5664,0.5611,0.5611,0.561,0,0.4971,0.5037,0.5074,0.5119,0.515,0.5181,0.5223,0.5258,0.5328,0.5349,0.535,0.5453,0.5494,0.5561,0.5569,0.5593,0.5606,0.5599,0.564,0.5643,0.5647,0.566,0.5664,0.561,0.561,0.561,0.561,0,0.5027,0.5073,0.5099,0.5163,0.5198,0.5241,0.5285,0.5316,0.5337,0.537,0.5428,0.5478,0.5536,0.5554,0.5576,0.5624,0.5623,0.5631,0.5632,0.5648,0.5661,0.5667,0.5608,0.5609,0.5609,0.5609,0,0,0.5038,0.5121,0.513,0.516,0.5224,0.526,0.5304,0.536,0.5385,0.5432,0.5471,0.5539,0.5547,0.5582,0.5608,0.5635,0.5661,0.564,0.5642,0.5642,0.5716,0.5709,0.5714,0.5673,0.5674,0.5675,0.5711,0,0.507,0.5149,0.5183,0.5247,0.5289,0.5319,0.5357,0.5401,0.5433,0.5474,0.551,0.5557,0.5564,0.5585,0.5612,0.5652,0.5676,0.565,0.571,0.5712,0.5695,0.5721,0.5714,0.5746,0.5716,0.5717,0.5718,0,0.5119,0.5164,0.5231,0.5289,0.5308,0.5342,0.5395,0.5434,0.5484,0.5505,0.5543,0.5568,0.5616,0.5613,0.568,0.5661,0.5688,0.5711,0.5713,0.5721,0.5716,0.5729,0.5757,0.5761,0.5726,0.5725,0.5725,0,0.5119,0.5197,0.5247,0.5272,0.534,0.5363,0.5393,0.5443,0.5474,0.552,0.5541,0.5593,0.5622,0.5662,0.5701,0.5695,0.5764,0.5764,0.5784,0.5783,0.5798,0.5796,0.583,0.5814,0.5814,0.5814,0.5814,0,0.5152,0.5192,0.5248,0.5279,0.5325,0.5364,0.5408,0.5441,0.5484,0.5522,0.5551,0.5587,0.5636,0.5677,0.5708,0.5759,0.5772,0.5791,0.5798,0.5788,0.5786,0.5807,0.5806,0.5815,0.5815,0.5815,0.5815,0,0.5161,0.52,0.5256,0.5316,0.5332,0.5363,0.5415,0.5446,0.5478,0.5526,0.554,0.5591,0.5642,0.5684,0.5751,0.5771,0.5824,0.5833,0.5807,0.5811,0.5827,0.5825,0.5876,0.5885,0.5863,0.5863,0.5863,0,0.5179,0.521,0.5273,0.5299,0.5329,0.5372,0.5403,0.5442,0.5474,0.5532,0.5557,0.5609,0.5653,0.5732,0.5776,0.5827,0.5838,0.5852,0.5846,0.5834,0.5838,0.5836,0.5839,0.5853,0.5853,0.5853,0.5853,0,0.5207,0.5225,0.5268,0.5317,0.5352,0.5394,0.5436,0.5456,0.5504,0.5538,0.5589,0.5622,0.569,0.5741,0.5797,0.5829,0.5849,0.5854,0.5861,0.5852,0.5835,0.5844,0.5808,0.5853,0.5853,0.5853,0.5853,0.5853,0.5222,0.525,0.5298,0.5345,0.538,0.5418,0.545,0.5486,0.5529,0.5585,0.5606,0.5659,0.5708,0.5784,0.5816,0.5858,0.5861,0.5871,0.5874,0.5876,0.5874,0.5827,0.5868,0.5868,0.5868,0.5868,0.5868,0,0.5251,0.5283,0.5325,0.5382,0.5419,0.5433,0.548,0.551,0.5555,0.5598,0.564,0.5698,0.5748,0.5795,0.5847,0.5872,0.5882,0.5884,0.5883,0.589,0.5869,0.5857,0.5875,0.5875,0.5875,0.5875,0.5875,0.5875,0.5271,0.532,0.5343,0.541,0.5442,0.5492,0.5518,0.5553,0.5588,0.5651,0.5692,0.5721,0.5766,0.5822,0.5868,0.5881,0.5899,0.5898,0.5913,0.5893,0.5892,0.5891,0.588,0.5902,0.5902,0.5931,0.5931,0.5931]},{"header":{"parameterUnit":"m.s-1","parameterCategory":1,"la1":30.2991,"la2":30.254,"lo1":-89.0895,"lo2":-89.0444,"dy":0.0017,"dx":0.0017,"nx":28,"ny":28,"refTime":"2023-07-20T21:00:00:Z","depth":0,"parameterNumber":3,"parameterNumberName":"V-component_of_WINDS"},"data":[0,0,0,0,0,0,0,0,0,0,0,0,0,0,0,0,0,0,0,0,0,0,0,0,0,0,0,0,0,0,0,0,0,0,0,0,0,0,0,0,0,0,0,0,0,0,0,0,0,0,0,0,0,0,0,0,0,0,4.0126,4.0126,0,4.0114,4.0114,4.0114,4.0113,4.0113,4.0113,4.0113,4.0099,4.0098,4.0098,0,0,0,0,0,0,0,0,0,0,0,0,0,4.0143,4.0142,4.0126,4.0126,4.0126,4.0115,4.0114,4.0114,4.0113,4.0113,4.0113,4.0113,4.0099,4.0099,4.0098,0,0,0,0,0,0,0,0,0,0,0,0,0,4.0134,4.0142,4.0126,4.0124,4.0123,4.0115,4.0114,4.0114,4.0113,4.0113,4.0113,4.0113,4.0099,4.0099,4.0098,4.009,0,0,4.0096,4.0095,0,0,0,0,0,0,0,0,4.0134,4.0133,4.0124,4.0124,4.0123,4.0115,4.0115,4.0106,4.0113,4.0117,4.0113,4.0113,4.0104,4.0103,4.01,4.0089,4.0089,4.0096,4.0095,4.0095,4.0095,0,0,0,0,0,0,0,4.0135,4.0133,4.0121,4.0124,4.0124,4.0122,4.0121,4.0113,4.0109,4.0116,4.0116,4.0115,4.0104,4.0101,4.01,4.0088,4.0096,4.0095,4.0095,4.0094,4.0067,4.0067,0,0,0,0,0,0,4.0136,4.0134,4.0122,4.0121,4.0129,4.0121,4.012,4.0118,4.011,4.0109,4.0115,4.0115,4.0102,4.0101,4.01,4.0088,4.0095,4.0094,4.0094,4.0067,4.0067,4.0066,0,0,0,0,0,0,4.0137,4.0135,4.0122,4.0127,4.0126,4.0121,4.0118,4.0117,4.0115,4.0108,4.0107,4.0113,4.0102,4.0101,4.0092,4.0087,4.0094,4.0093,4.0067,4.0067,4.0067,4.0065,0,0,0,0,0,0,4.0137,4.0135,4.0133,4.0127,4.0125,4.0116,4.0118,4.0117,4.0114,4.0114,4.0106,4.0105,4.0102,4.0093,4.0091,4.0086,4.0093,4.0068,4.0067,4.0067,4.0066,4.0065,4.0064,0,0,0,0,0,4.0138,4.0134,4.0133,4.0132,4.0123,4.0116,4.0114,4.0112,4.0113,4.011,4.0106,4.0106,4.0088,4.0092,4.009,4.0085,4.0068,4.0067,4.0067,4.0066,4.0065,4.0064,0,0,0,0,0,0,4.0139,4.0133,4.0133,4.0127,4.0122,4.0116,4.0112,4.0111,4.0105,4.0105,4.0102,4.01,4.0091,4.0087,4.0091,4.0075,4.0078,4.0077,4.0078,4.0077,4.0076,4.0077,4.0092,0,0,0,0,0,4.0139,4.0134,4.0129,4.0124,4.0122,4.0117,4.0114,4.0112,4.0107,4.0104,4.0099,4.0093,4.0086,4.0081,4.0075,4.0065,4.0062,4.006,4.006,4.0059,4.0058,4.005,4.0048,4.0064,4.0064,4.0064,0,0,4.0138,4.0134,4.0131,4.0124,4.012,4.0114,4.0116,4.011,4.0105,4.0103,4.0094,4.009,4.0083,4.0073,4.0068,4.007,4.0053,4.0058,4.0058,4.0057,4.0049,4.0047,4.0046,4.0064,4.0064,4.0064,0,0,4.0133,4.013,4.0125,4.0121,4.0115,4.0111,4.011,4.0103,4.0101,4.0092,4.009,4.0083,4.0072,4.0065,4.0061,4.0051,4.0049,4.0049,4.0045,4.0037,4.0035,4.0034,4.0029,4.0027,4.0048,4.0048,4.0048,0,4.0133,4.0125,4.0122,4.0116,4.0112,4.011,4.0104,4.0099,4.0091,4.0087,4.0089,4.0072,4.0068,4.0055,4.0052,4.0049,4.0046,4.005,4.0036,4.0035,4.0034,4.0028,4.0027,4.0048,4.0048,4.0048,4.0048,0,4.0124,4.0118,4.0114,4.0106,4.0102,4.0095,4.009,4.0085,4.0083,4.0079,4.0068,4.0062,4.0053,4.005,4.0048,4.0036,4.0037,4.0037,4.004,4.0032,4.0027,4.0025,4.0047,4.0047,4.0048,4.0048,0,0,4.0121,4.011,4.0109,4.0104,4.0096,4.0091,4.0083,4.0074,4.0069,4.0063,4.0055,4.0044,4.0044,4.0038,4.0035,4.0029,4.0018,4.003,4.0029,4.0026,4.0002,4.0001,3.9999,4.0017,4.0017,4.0017,4.0002,0,4.0114,4.0102,4.0098,4.0087,4.0081,4.0078,4.007,4.0064,4.0059,4.0051,4.0045,4.0037,4.0038,4.0035,4.0028,4.0021,4.0013,4.0022,4.0008,4.0007,4.0009,3.9997,3.9996,3.9983,4.0,4.0,4.0,0,4.0106,4.0099,4.0087,4.0078,4.0075,4.0069,4.0059,4.0053,4.0043,4.004,4.0033,4.003,4.0019,4.0022,4.0007,4.0013,4.0006,4.0002,4.0001,3.9999,4.0003,3.9993,3.9979,3.9977,3.9997,3.9997,3.9997,0,4.0103,4.0091,4.0082,4.0078,4.0067,4.0063,4.0058,4.0049,4.0043,4.0034,4.0029,4.0019,4.0013,4.0004,3.9997,4.0,3.9981,3.9984,3.9976,3.9976,3.9972,3.9972,3.9956,3.997,3.997,3.997,3.997,0,4.0096,4.0089,4.008,4.0075,4.0065,4.006,4.005,4.0045,4.0037,4.0028,4.0024,4.0016,4.0008,3.9998,3.9992,3.9979,3.9976,3.9972,3.997,3.9972,3.9972,3.9967,3.9967,3.9969,3.9969,3.9969,3.997,0,4.0092,4.0087,4.0076,4.0066,4.0063,4.0056,4.0047,4.004,4.0034,4.0023,4.002,4.0011,3.9999,3.9991,3.9975,3.9971,3.9955,3.9955,3.9959,3.9958,3.995,3.995,3.9929,3.9925,3.9942,3.9942,3.9942,0,4.0088,4.0082,4.0071,4.0065,4.006,4.0051,4.0045,4.0038,4.0032,4.0019,4.0013,4.0001,3.9991,3.997,3.9961,3.9948,3.9946,3.994,3.9944,3.9945,3.9944,3.9944,3.9942,3.9939,3.9939,3.9939,3.9938,0,4.008,4.0077,4.0069,4.0059,4.0051,4.0043,4.0034,4.0029,4.0021,4.0013,4.0,3.9992,3.9975,3.9962,3.9948,3.9941,3.9937,3.9937,3.9934,3.9935,3.9937,3.9934,3.9955,3.9937,3.9938,3.9938,3.9938,3.9938,4.0075,4.0069,4.006,4.0049,4.0042,4.0033,4.0026,4.0018,4.0008,3.9995,3.9991,3.9977,3.9965,3.9946,3.9938,3.9925,3.9926,3.9923,3.9921,3.992,3.9919,3.9939,3.9923,3.9923,3.9923,3.9923,3.9923,0,4.0066,4.006,4.005,4.0038,4.0029,4.0027,4.0017,4.0009,3.9998,3.9987,3.9976,3.996,3.9947,3.9935,3.9921,3.9913,3.991,3.9909,3.9909,3.9907,3.992,3.9924,3.9911,3.9911,3.9911,3.9911,3.9911,3.9911,4.0061,4.0049,4.0044,4.0028,4.0021,4.0008,4.0002,3.9993,3.9984,3.9967,3.9955,3.9948,3.9936,3.992,3.9906,3.9903,3.9897,3.9895,3.9892,3.9905,3.9906,3.9907,3.991,3.9895,3.9895,3.9879,3.9878,3.9878]}]]